Flag for Canada Weather past 2 weeks in Pickering, Ontario, Canada

Now
55 °F

Passing clouds.


Feels Like: 54 °F
Forecast: 48 / 64 °F
Wind: 7 mph from Northwest

Location: Toronto Buttonville

Current Time: Sep 16, 2014 at 10:09:27 AM

Latest Report: Sep 16, 2014 at 9:00 AM


Visibility: 15 mi

Pressure: 30.09 "Hg

Humidity: 77%

Dew point: 48 °F

Location of PickeringLocation

Historic Weather in Pickering — Graph

°F

Pickering temperature yesterday

Maximum temperature yesterday: 64 °F (at 12:00 PM)
Minimum temperature yesterday: 45 °F (at 6:00 AM)
Average temperature yesterday: 55 °F

Past Weeks' High & Low Weather Summary

 TemperatureHumidityPressure
High86 °F (Sep 5, 3:00 PM)100% (Sep 2, 9:00 PM)30.36 "Hg (Sep 2, 9:00 PM)
Low39 °F (Sep 14, 7:00 AM)40% (Sep 6, 5:00 PM)29.52 "Hg (Sep 11, 4:00 AM)
Average63 °F79%30.06 "Hg
* Reported Sep 1 8:00 AM — Sep 16 8:00 AM, Pickering, Weather by CustomWeather, © 2014

Note: Actual official high and low records may vary slightly from our data, if they occured in-between our weather recording intervals... More about our weather records

Advertising

Pickering weather history for previous 24 hours

 ConditionsComfort  
Time TempWeatherWind HumidityBarometerVisibility
8:00 AM
Sep 16
50 °FPassing clouds.5 mph88%30.08 "Hg15 mi
7:00 AM48 °FPassing clouds.No wind94%30.08 "Hg15 mi
6:00 AM48 °FPassing clouds.2 mph94%30.06 "Hg15 mi
5:00 AM50 °FPassing clouds.2 mph94%30.05 "Hg15 mi
4:00 AM50 °FPassing clouds.2 mph94%30.04 "Hg15 mi
3:00 AM52 °FPassing clouds.No wind94%30.03 "Hg15 mi
2:00 AM54 °FPassing clouds.2 mph94%30.04 "Hg12 mi
1:00 AM54 °FFog.No wind100%30.04 "Hg6 mi
12:00 AM55 °FLight rain. Fog.3 mph94%30.06 "Hg6 mi
11:00 PM
Sep 15
55 °FLight rain. Overcast.No wind100%30.05 "Hg7 mi
10:00 PM55 °FOvercast.5 mph94%30.06 "Hg7 mi
9:00 PM55 °FLight rain. Overcast.2 mph100%30.07 "Hg8 mi
8:00 PM55 °FLight rain. Overcast.2 mph100%30.07 "Hg8 mi
7:00 PM57 °FLight rain. Overcast.5 mph88%30.08 "Hg12 mi
6:00 PM57 °FLight rain. Overcast.2 mph94%30.09 "Hg10 mi
5:00 PM59 °FLight rain. Overcast.8 mph82%30.09 "Hg10 mi
4:00 PM63 °FLight rain. Mostly cloudy.6 mph64%30.08 "Hg15 mi
3:00 PM63 °FMostly cloudy.6 mph59%30.10 "Hg15 mi
2:00 PM63 °FMostly cloudy.6 mph64%30.11 "Hg15 mi
1:00 PM64 °FMore clouds than sun.10 mph52%30.13 "Hg15 mi
12:00 PM64 °FPartly sunny.8 mph52%30.15 "Hg15 mi
11:00 AM63 °FScattered clouds.12 mph56%30.16 "Hg15 mi
10:00 AM59 °FScattered clouds.6 mph59%30.19 "Hg15 mi
Weather by CustomWeather, © 2014

See weather overviewHow to use our weather pages